Location: Laas
(43.4693°N, 0.3073°E)
Time: 15:18:58
(UTC+00:00)

Cosmos 2058 Rocket - Pass Details

Date: 25 October 2020
Orbit: 610 x 639 km, 82.5° (Epoch: 23 November)

Event Time Altitude Azimuth Distance (km) Brightness Sun altitude
Rises 18:37:37 0° 196° (SSW) 2,908 6.7 -18.4°
Reaches altitude 10° 18:39:51 10° 200° (SSW) 2,010 5.9 -18.8°
Maximum altitude 18:44:16 61° 280° (W) 726 3.6 -19.6°
Drops below altitude 10° 18:48:45 10° 1° (N) 2,037 5.7 -20.5°
Sets 18:51:02 0° 5° (N) 2,953 6.5 -20.9°
